EW7939 Weather Reports


Display with metric or nautical units.
time (UTC)temp
F
wind
direction
speed
MPH
gust
MPH
rain 1hr
in
rain 24hr
in
rain mn
in
humidity
%
barometer
mb
20260905034503 80 230 0.0 0.0 0.00 0.00 0.00 72 1009.9
20260905033002 81 230 0.0 0.0 0.00 0.00 0.00 74 1009.9
20260905031501 81 230 0.0 0.0 0.00 0.00 0.00 71 1009.8
20260905024622 82 230 0.0 0.0 0.00 0.00 0.00 70 1009.8
20260905023117 83 230 0.0 0.0 0.00 0.00 0.00 68 1009.6
20260905021601 84 230 0.0 0.0 0.00 0.00 0.00 69 1009.6
20260905020107 85 230 0.0 0.0 0.00 0.00 0.00 67 1009.3
20260905014600 86 230 0.0 0.0 0.00 0.00 0.00 64 1009.1
20260905013056 88 230 0.0 0.0 0.00 0.00 0.00 62 1009.0
20260905011604 89 230 0.0 0.0 0.00 0.00 0.00 58 1008.8
20260905010054 91 230 0.0 0.0 0.00 0.00 0.00 56 1008.7
20260905004554 93 230 0.0 0.0 0.00 0.00 0.00 53 1008.6
20260905003053 94 230 0.0 0.0 0.00 0.00 0.00 53 1008.5
20260905001552 96 230 0.0 0.0 0.00 0.00 0.00 50 1008.6
20260905000051 97 230 0.0 0.0 0.00 0.00 0.00 49 1008.7
20260904234556 98 230 0.0 0.0 0.00 0.00 0.00 49 1008.7
20260904233052 99 230 0.0 1.0 0.00 0.00 0.00 49 1008.8
20260904231547 99 230 0.0 5.0 0.00 0.00 0.00 47 1008.9
20260904230047 100 211 1.0 4.0 0.00 0.00 0.00 45 1009.1
20260904224601 100 257 1.0 4.0 0.00 0.00 0.00 45 1009.1
20260904223049 100 121 1.0 4.0 0.00 0.00 0.00 45 1009.0
20260904221548 101 202 1.0 4.0 0.00 0.00 0.00 46 1009.0
20260904220042 101 219 1.0 7.0 0.00 0.00 0.00 44 1009.0
20260904214543 101 242 2.0 7.0 0.00 0.00 0.00 45 1009.2
20260904213037 101 246 2.0 7.0 0.00 0.00 0.00 44 1009.2
20260904211534 100 120 2.0 8.0 0.00 0.00 0.00 45 1009.4
20260904210039 100 145 2.0 9.0 0.00 0.00 0.00 45 1009.7
20260904204533 100 238 2.0 7.0 0.00 0.00 0.00 44 1009.8
20260904203031 100 272 2.0 8.0 0.00 0.00 0.00 45 1009.9
20260904201528 100 137 1.0 4.0 0.00 0.00 0.00 48 1010.1
20260904200024 99 215 2.0 8.0 0.00 0.00 0.00 47 1010.3
20260904194519 99 246 1.0 8.0 0.00 0.00 0.00 49 1010.5
20260904193016 98 283 2.0 8.0 0.00 0.00 0.00 47 1010.6
20260904191512 98 234 5.0 11.0 0.00 0.00 0.00 48 1010.8
20260904190007 97 234 2.0 6.0 0.00 0.00 0.00 48 1011.0
20260904184504 97 286 3.0 7.0 0.00 0.00 0.00 51 1011.2
20260904183100 96 254 4.0 10.0 0.00 0.00 0.00 51 1011.3
20260904181558 96 225 4.0 9.0 0.00 0.00 0.00 52 1011.3
20260904180058 95 271 4.0 8.0 0.00 0.00 0.00 52 1011.3
20260904174552 95 186 4.0 11.0 0.00 0.00 0.00 53 1011.5
20260904173110 94 311 6.0 12.0 0.00 0.00 0.00 53 1011.8
20260904171603 94 265 3.0 11.0 0.00 0.00 0.00 54 1011.9
20260904170046 94 257 4.0 11.0 0.00 0.00 0.00 56 1012.0
20260904164548 93 312 3.0 10.0 0.00 0.00 0.00 58 1012.0
20260904163040 92 307 6.0 15.0 0.00 0.00 0.00 57 1012.1
20260904161540 91 236 3.0 8.0 0.00 0.00 0.00 60 1012.1
20260904160035 90 273 5.0 13.0 0.00 0.00 0.00 61 1012.1
20260904154532 90 239 4.0 12.0 0.00 0.00 0.00 62 1012.0
20260904153029 88 194 3.0 8.0 0.00 0.00 0.00 65 1012.1
20260904151523 0 0.0 0.0 0.00 0.00 0.00 1012.1
20260904150028 84 259 2.0 7.0 0.00 0.00 0.00 74 1012.0
20260904144518 83 244 2.0 9.0 0.00 0.00 0.00 74 1011.9
20260904143014 81 254 2.0 6.0 0.00 0.00 0.00 80 1011.8
20260904141510 80 227 1.0 5.0 0.00 0.00 0.00 83 1011.9
20260904140006 78 194 1.0 4.0 0.00 0.00 0.00 85 1012.0
20260904134518 76 193 1.0 3.0 0.00 0.00 0.00 86 1012.1
20260904133003 75 193 0.0 0.0 0.00 0.00 0.00 86 1011.8
20260904131504 74 192 0.0 0.0 0.00 0.00 0.00 85 1011.7
20260904130002 73 192 0.0 0.0 0.00 0.00 0.00 83 1011.9
20260904124600 73 192 0.0 0.0 0.00 0.00 0.00 82 1011.7
20260904123057 73 192 0.0 0.0 0.00 0.00 0.00 82 1011.4
20260904121555 73 192 0.0 0.0 0.00 0.00 0.00 82 1011.3
20260904120104 73 192 0.0 0.0 0.00 0.00 0.00 81 1011.2
20260904114550 73 192 0.0 0.0 0.00 0.00 0.00 81 1011.0
20260904113050 73 192 0.0 0.0 0.00 0.00 0.00 81 1010.9
20260904111545 73 192 0.0 0.0 0.00 0.00 0.00 81 1010.7
20260904110043 73 192 0.0 0.0 0.00 0.00 0.00 81 1010.5
20260904104542 74 192 0.0 0.0 0.00 0.00 0.00 81 1010.4
20260904103040 74 192 0.0 0.0 0.00 0.00 0.00 80 1010.2
20260904101538 74 192 0.0 0.0 0.00 0.00 0.00 79 1010.0
20260904100038 74 192 0.0 0.0 0.00 0.00 0.00 78 1009.9
20260904094542 74 192 0.0 0.0 0.00 0.00 0.00 78 1009.9
20260904093033 75 192 0.0 0.0 0.00 0.00 0.00 78 1009.8
20260904091531 75 192 0.0 0.0 0.00 0.00 0.00 77 1009.7
20260904090029 75 192 0.0 0.0 0.00 0.00 0.00 77 1009.6
20260904084527 76 192 0.0 1.0 0.00 0.00 0.00 77 1009.4
20260904083035 76 192 0.0 2.0 0.00 0.00 0.00 77 1009.3
20260904081524 76 192 0.0 2.0 0.00 0.00 0.00 76 1009.2
20260904080023 77 192 0.0 1.0 0.00 0.00 0.00 76 1009.2
20260904074524 77 192 0.0 1.0 0.00 0.00 0.00 76 1009.1
20260904073024 77 192 0.0 0.0 0.00 0.00 0.00 76 1009.1
20260904071520 78 192 0.0 2.0 0.00 0.00 0.00 76 1009.1
20260904070018 78 192 0.0 3.0 0.00 0.00 0.00 76 1009.2
20260904064516 0 0.0 0.0 0.00 0.00 0.00 1009.3
20260904063018 0 0.0 0.0 0.00 0.00 0.00 1009.3
20260904061507 0 0.0 0.0 0.00 0.00 0.00 1009.3
20260904060003 0 0.0 0.0 0.00 0.00 0.00 1009.4
20260904054602 0 0.0 0.0 0.00 0.00 0.00 1009.2
20260904053054 0 0.0 0.0 0.00 0.00 0.00 1009.2
20260904051553 0 0.0 0.0 0.00 0.00 0.00 1009.1
20260904050046 0 0.0 0.0 0.00 0.00 0.00 1009.0
20260904044546 0 0.0 0.0 0.00 0.00 0.00 1009.0
20260904043050 0 0.0 0.0 0.00 0.00 0.00 1009.1
20260904041545 0 0.0 0.0 0.00 0.00 0.00 1009.0
20260904040053 0 0.0 0.0 0.00 0.00 0.00 1009.1
20260904034550 0 0.0 0.0 0.00 0.00 0.00 1008.9